Weather reports worldwide

Advertisment
Castellon, Spain (8286): temperature & dewpoint: 18.08.2019 07:00:00 - 24.08.2019 07:00:00 (CEST)Castellon, Spain (8286): wind speed: 18.08.2019 07:00:00 - 24.08.2019 07:00:00 (CEST)Castellon, Spain (8286): wind direction: 18.08.2019 07:00:00 - 24.08.2019 07:00:00 (CEST)Castellon, Spain (8286): reduced air pressure: 18.08.2019 07:00:00 - 24.08.2019 07:00:00 (CEST)Castellon, Spain (8286): visibility: 18.08.2019 07:00:00 - 24.08.2019 07:00:00 (CEST)Castellon, Spain (8286): precipitation: 18.08.2019 07:00:00 - 24.08.2019 07:00:00 (CEST)
Date & Time tt [°C] td [°C] ff [km/h] ff [kn] dd ppp [hPa] vv [km] rr [mm]
24.08.2019 07:00:00 20,2 13,9 9 5 WNW 1018,8 20 0,0
24.08.2019 06:00:00 20,3 15,7 9 5 WNW 1018,7 20 0,0
24.08.2019 05:00:00 20,5 15,5 8 4 WNW 1018,8 20 -
24.08.2019 04:00:00 20,9 15,9 8 4 WNW 1018,9 20 0,0
24.08.2019 03:00:00 21,3 16,3 9 5 WNW 1018,8 20 0,0
24.08.2019 02:00:00 21,9 16,6 8 4 WNW 1019,0 20 -
24.08.2019 01:00:00 22,8 17,5 5 3 WNW 1019,0 20 0,0
24.08.2019 00:00:00 23,7 19,0 5 3 WNW 1018,9 20 0,0
23.08.2019 23:00:00 24,5 19,8 2 1 NNW 1019,0 20 -
23.08.2019 22:00:00 24,9 19,7 4 2 SSW 1019,0 20 0,0
23.08.2019 21:00:00 26,1 20,0 2 1 ESE 1018,4 20 0,0
23.08.2019 20:00:00 27,2 18,8 5 3 SE 1018,3 20 -
23.08.2019 19:00:00 27,8 19,1 9 5 ESE 1018,5 20 0,0
23.08.2019 18:00:00 29,4 17,2 11 6 SE 1018,4 20 0,0
23.08.2019 17:00:00 30,7 15,2 11 6 ESE 1018,5 20 -
23.08.2019 16:00:00 31,4 15,0 11 6 SE 1018,7 20 0,0
23.08.2019 15:00:00 31,7 16,0 11 6 SE 1019,1 20 0,0
23.08.2019 14:00:00 32,1 16,4 11 6 SSE 1019,3 40 -
23.08.2019 13:00:00 32,0 15,5 11 6 SE 1019,5 20 0,0
23.08.2019 12:00:00 31,4 13,6 5 3 SE 1019,9 20 0,0
23.08.2019 11:00:00 28,6 14,4 5 3 WSW 1020,1 40 -
23.08.2019 10:00:00 25,6 14,4 9 5 WNW 1020,2 20 0,0
23.08.2019 09:00:00 22,1 14,7 13 7 WNW 1020,3 20 0,0
23.08.2019 08:00:00 20,0 15,2 11 6 WNW 1020,2 40 -
23.08.2019 07:00:00 19,8 15,4 11 6 W 1019,9 20 0,0
23.08.2019 06:00:00 20,2 15,6 13 7 W 1019,7 20 0,0
23.08.2019 05:00:00 20,0 16,2 9 5 WNW 1020,1 20 -
23.08.2019 04:00:00 20,4 16,2 8 4 WNW 1020,4 20 0,0
23.08.2019 03:00:00 21,1 16,5 5 3 WNW 1020,7 20 0,0
23.08.2019 02:00:00 21,8 16,7 4 2 WNW 1020,7 20 -
23.08.2019 01:00:00 22,7 17,6 5 3 W 1020,5 20 0,0
23.08.2019 00:00:00 23,3 18,6 4 2 NW 1020,3 20 0,0
22.08.2019 23:00:00 24,0 19,1 4 2 SW 1020,1 20 -
22.08.2019 22:00:00 24,6 19,2 4 2 SSW 1019,8 20 0,0
22.08.2019 21:00:00 25,7 19,6 5 3 S 1019,5 20 0,0
22.08.2019 20:00:00 27,1 18,7 5 3 SSW 1019,3 20 -
22.08.2019 19:00:00 28,0 19,0 8 4 S 1019,3 20 0,0
22.08.2019 18:00:00 28,9 18,4 9 5 SE 1019,5 20 0,0
22.08.2019 17:00:00 29,6 17,1 13 7 SSE 1019,5 20 -
22.08.2019 16:00:00 30,7 17,8 11 6 SSE 1019,5 20 0,0
22.08.2019 15:00:00 30,7 16,7 13 7 SE 1019,6 20 0,0
22.08.2019 14:00:00 30,3 17,0 11 6 SE 1019,8 40 -
22.08.2019 13:00:00 29,6 17,4 11 6 SE 1020,2 20 0,0
22.08.2019 12:00:00 29,2 17,4 9 5 SE 1020,5 20 0,0
22.08.2019 11:00:00 27,2 16,5 4 2 SSE 1020,4 40 -
22.08.2019 10:00:00 23,8 16,3 9 5 W 1020,5 20 0,0
22.08.2019 09:00:00 21,0 15,3 9 5 WNW 1020,5 20 0,0
22.08.2019 08:00:00 19,1 14,6 11 6 WNW 1020,2 40 -
22.08.2019 07:00:00 19,0 14,9 15 8 W 1019,8 20 0,0
22.08.2019 06:00:00 19,0 15,1 9 5 WNW 1019,6 20 0,0
22.08.2019 05:00:00 19,3 15,2 9 5 WNW 1019,4 20 -
22.08.2019 04:00:00 19,3 16,0 8 4 WNW 1019,1 20 0,0
22.08.2019 03:00:00 19,8 16,6 11 6 WNW 1019,0 20 0,0
22.08.2019 02:00:00 20,3 16,5 9 5 WNW 1019,1 20 -
22.08.2019 01:00:00 20,7 16,9 9 5 WNW 1019,4 20 0,0
22.08.2019 00:00:00 20,7 17,9 9 5 W 1019,3 20 0,0
21.08.2019 23:00:00 21,2 17,6 8 4 NNW 1018,2 20 -
21.08.2019 22:00:00 21,5 17,9 5 3 W 1019,4 16 0,2
21.08.2019 21:00:00 22,1 18,3 8 4 WNW 1019,5 19 0,4
21.08.2019 20:00:00 22,9 20,2 8 4 W 1019,8 19 -
21.08.2019 19:00:00 24,3 18,9 4 2 SSW 1019,1 20 0,0
21.08.2019 18:00:00 24,8 18,5 5 3 SSW 1018,6 19 0,0
21.08.2019 17:00:00 25,9 18,1 11 6 S 1018,9 20 -
21.08.2019 16:00:00 25,9 18,1 8 4 SSE 1019,2 20 0,0
21.08.2019 15:00:00 26,3 17,6 11 6 S 1019,9 20 0,0
21.08.2019 14:00:00 25,7 17,6 9 5 S 1020,3 30 -
21.08.2019 13:00:00 26,6 18,2 5 3 ESE 1020,5 20 0,0
21.08.2019 12:00:00 25,4 18,1 4 2 ENE 1020,7 20 0,0
21.08.2019 11:00:00 25,3 18,5 8 4 WNW 1021,0 25 -
21.08.2019 10:00:00 23,7 19,2 8 4 WNW 1021,0 20 0,0
21.08.2019 09:00:00 22,3 19,1 9 5 WNW 1021,1 20 0,0
21.08.2019 08:00:00 21,8 19,2 8 4 WNW 1021,0 20 -
21.08.2019 07:00:00 21,6 19,2 11 6 WNW 1020,8 20 0,2
21.08.2019 06:00:00 21,5 19,1 11 6 WNW 1020,8 20 0,0
21.08.2019 05:00:00 22,0 19,2 9 5 WNW 1020,9 20 -
21.08.2019 04:00:00 22,3 19,5 4 2 NW 1021,1 20 0,0
21.08.2019 03:00:00 23,9 19,4 8 4 NE 1021,2 18 0,0
21.08.2019 02:00:00 23,8 17,8 4 2 NNW 1021,2 20 -
21.08.2019 01:00:00 24,0 16,8 8 4 N 1021,2 20 0,0
21.08.2019 00:00:00 23,2 17,2 4 2 NNW 1021,2 20 0,0
20.08.2019 23:00:00 23,0 18,3 4 2 NW 1021,1 20 -
20.08.2019 22:00:00 22,9 18,9 5 3 NW 1020,8 20 0,0
20.08.2019 21:00:00 22,9 18,9 4 2 NNW 1020,1 20 0,0
20.08.2019 20:00:00 23,3 19,7 5 3 NW 1020,3 20 -
20.08.2019 19:00:00 23,8 18,2 9 5 N 1019,4 20 0,0
20.08.2019 18:00:00 22,6 18,2 8 4 NE 1019,9 19 0,8
20.08.2019 17:00:00 24,2 18,8 9 5 ENE 1019,3 10 -
20.08.2019 16:00:00 26,7 15,1 9 5 NE 1018,8 20 0,0
20.08.2019 15:00:00 26,4 16,0 16 9 NE 1018,2 20 0,0
20.08.2019 14:00:00 26,5 17,8 15 8 NE 1018,1 40 -
20.08.2019 13:00:00 25,8 18,2 21 11 NNE 1018,1 20 0,0
20.08.2019 12:00:00 25,3 19,2 18 10 NNE 1017,8 20 0,2
20.08.2019 11:00:00 24,8 21,9 13 7 NNE 1016,6 15 -
20.08.2019 10:00:00 27,7 21,7 5 3 NE 1015,7 20 0,0
20.08.2019 09:00:00 26,5 21,3 5 3 N 1015,4 20 0,0
20.08.2019 08:00:00 25,7 20,9 4 2 N 1015,0 15 -
20.08.2019 07:00:00 25,7 20,9 9 5 N 1014,9 20 0,0
20.08.2019 06:00:00 25,4 20,9 5 3 N 1014,7 20 0,0
20.08.2019 05:00:00 25,3 21,0 5 3 N 1014,7 20 -
20.08.2019 04:00:00 25,3 21,0 4 2 NW 1015,0 20 0,0
20.08.2019 03:00:00 25,8 21,0 4 2 NNW 1015,3 20 0,0
20.08.2019 02:00:00 25,7 20,9 4 2 N 1015,5 20 -
20.08.2019 01:00:00 25,7 21,4 8 4 NE 1015,7 20 0,0
20.08.2019 00:00:00 25,9 22,0 9 5 NNE 1015,9 20 0,0
19.08.2019 23:00:00 26,0 22,1 9 5 NE 1015,9 20 -
19.08.2019 22:00:00 26,2 22,5 9 5 ENE 1015,6 20 0,0
19.08.2019 21:00:00 26,6 22,7 8 4 ENE 1014,9 20 0,0
19.08.2019 20:00:00 27,3 22,5 9 5 E 1014,7 20 -
19.08.2019 19:00:00 28,2 22,4 9 5 E 1014,5 20 0,0
19.08.2019 18:00:00 29,1 22,3 9 5 E 1014,6 20 0,0
19.08.2019 17:00:00 29,3 22,8 15 8 E 1014,9 19 -
19.08.2019 16:00:00 30,6 22,5 9 5 E 1014,8 20 0,0
19.08.2019 15:00:00 30,9 22,0 11 6 E 1015,0 20 0,0
19.08.2019 14:00:00 30,4 21,2 11 6 E 1015,3 35 -
19.08.2019 13:00:00 30,6 20,8 15 8 E 1015,3 20 0,0
19.08.2019 12:00:00 30,4 19,4 11 6 E 1015,4 20 0,0
19.08.2019 11:00:00 28,4 19,6 8 4 ENE 1015,1 40 -
19.08.2019 10:00:00 26,9 20,5 5 3 NNE 1014,6 20 0,0
19.08.2019 09:00:00 25,7 21,1 4 2 NW 1014,4 19 0,0
19.08.2019 08:00:00 24,9 21,4 4 2 WNW 1014,0 40 -
19.08.2019 07:00:00 24,4 21,1 5 3 WNW 1013,4 20 0,0
19.08.2019 06:00:00 24,5 21,4 4 2 NW 1012,9 20 0,0
19.08.2019 05:00:00 24,6 20,9 5 3 WNW 1012,9 20 -
19.08.2019 04:00:00 25,3 21,2 5 3 N 1012,8 20 0,0
19.08.2019 03:00:00 25,3 21,8 4 2 NNE 1012,5 20 0,0
19.08.2019 02:00:00 25,0 20,7 5 3 NNW 1012,6 20 -
19.08.2019 01:00:00 26,5 22,6 5 3 NNE 1012,5 20 0,0
19.08.2019 00:00:00 26,6 22,4 5 3 NNE 1012,3 20 0,0
18.08.2019 23:00:00 26,7 22,5 4 2 E 1012,0 20 -
18.08.2019 22:00:00 27,0 22,4 5 3 NE 1011,5 20 0,0
18.08.2019 21:00:00 27,5 22,7 4 2 E 1010,9 20 0,0
18.08.2019 20:00:00 28,4 22,9 8 4 E 1010,6 20 -
18.08.2019 19:00:00 29,2 22,9 11 6 ESE 1010,6 20 0,0
18.08.2019 18:00:00 30,1 22,3 11 6 ESE 1010,7 20 0,0
18.08.2019 17:00:00 31,4 22,7 9 5 SSE 1010,7 20 -
18.08.2019 16:00:00 31,7 22,7 13 7 SE 1011,0 20 0,0
18.08.2019 15:00:00 32,7 22,8 11 6 S 1011,3 20 0,0
18.08.2019 14:00:00 32,1 22,8 9 5 SE 1011,8 20 -
18.08.2019 13:00:00 31,8 22,8 9 5 SSE 1012,3 20 0,0
18.08.2019 12:00:00 30,9 22,8 9 5 SE 1012,5 20 0,0
18.08.2019 11:00:00 29,4 22,4 4 2 SSE 1012,4 20 -
18.08.2019 10:00:00 27,0 22,0 4 2 W 1012,3 20 0,0
18.08.2019 09:00:00 24,9 20,8 8 4 WNW 1012,3 20 0,0
18.08.2019 08:00:00 24,1 21,0 8 4 WNW 1012,1 20 -
18.08.2019 07:00:00 23,5 20,8 8 4 WNW 1011,9 20 0,0

tt = temperature
td = dewpoint
ff = wind speed
dd = wind direction
ppp = reduced air pressure
vv = visibility
rr = precipitation

Next stations